| time (UTC) | temp F | wind direction | speed MPH | gust MPH | rain 1hr in | rain 24hr in | rain mn in | humidity % | barometer mb |
| 20260904025903 | 56 | 126 | 0.0 | 0.0 | 0.00 | 0.20 | 0.18 | 88 | 1009.6 |
| 20260904025403 | 56 | 126 | 0.0 | 0.0 | 0.00 | 0.20 | 0.18 | 87 | 1009.6 |
| 20260904024902 | 57 | 123 | 0.0 | 0.0 | 0.00 | 0.21 | 0.18 | 86 | 1009.6 |
| 20260904024403 | 57 | 123 | 0.0 | 0.0 | 0.00 | 0.21 | 0.18 | 86 | 1009.5 |
| 20260904023903 | 57 | 123 | 0.0 | 1.0 | 0.00 | 0.21 | 0.18 | 85 | 1009.5 |
| 20260904022902 | 57 | 134 | 0.0 | 2.0 | 0.00 | 0.21 | 0.18 | 83 | 1009.5 |
| 20260904021903 | 57 | 173 | 0.0 | 5.0 | 0.00 | 0.21 | 0.18 | 82 | 1009.6 |
| 20260904020903 | 58 | 150 | 0.0 | 3.0 | 0.00 | 0.21 | 0.18 | 83 | 1009.6 |
| 20260904020403 | 58 | 164 | 0.0 | 0.0 | 0.00 | 0.21 | 0.18 | 83 | 1009.6 |
| 20260904015903 | 58 | 109 | 0.0 | 2.0 | 0.00 | 0.21 | 0.18 | 84 | 1009.6 |
| 20260904015403 | 58 | 91 | 0.0 | 2.0 | 0.00 | 0.21 | 0.18 | 83 | 1009.6 |
| 20260904014903 | 58 | 133 | 0.0 | 0.0 | 0.00 | 0.22 | 0.18 | 83 | 1009.6 |
| 20260904014402 | 58 | 120 | 0.0 | 0.0 | 0.00 | 0.22 | 0.18 | 85 | 1009.6 |
| 20260904013403 | 58 | 131 | 0.0 | 0.0 | 0.00 | 0.22 | 0.18 | 86 | 1009.7 |
| 20260904012903 | 58 | 124 | 0.0 | 0.0 | 0.00 | 0.22 | 0.18 | 87 | 1009.7 |
| 20260904012402 | 58 | 119 | 0.0 | 0.0 | 0.00 | 0.22 | 0.18 | 86 | 1009.7 |
| 20260904011902 | 58 | 145 | 0.0 | 1.0 | 0.00 | 0.22 | 0.18 | 86 | 1009.6 |
| 20260904011403 | 58 | 145 | 0.0 | 1.0 | 0.00 | 0.22 | 0.18 | 85 | 1009.7 |
| 20260904010903 | 58 | 111 | 0.0 | 2.0 | 0.00 | 0.22 | 0.18 | 86 | 1009.7 |
| 20260904010403 | 58 | 129 | 0.0 | 2.0 | 0.00 | 0.23 | 0.18 | 85 | 1009.7 |
| 20260904005903 | 58 | 86 | 1.0 | 2.0 | 0.00 | 0.23 | 0.18 | 84 | 1009.8 |
| 20260904005402 | 58 | 128 | 0.0 | 1.0 | 0.00 | 0.23 | 0.18 | 86 | 1009.9 |
| 20260904004403 | 58 | 143 | 0.0 | 0.0 | 0.00 | 0.23 | 0.18 | 86 | 1009.9 |
| 20260904003903 | 58 | 100 | 0.0 | 3.0 | 0.00 | 0.23 | 0.18 | 85 | 1009.8 |
| 20260904003403 | 58 | 114 | 1.0 | 5.0 | 0.00 | 0.24 | 0.18 | 84 | 1009.8 |
| 20260904002403 | 58 | 92 | 0.0 | 5.0 | 0.00 | 0.24 | 0.18 | 84 | 1009.9 |
| 20260904001903 | 58 | 133 | 0.0 | 5.0 | 0.00 | 0.24 | 0.18 | 85 | 1009.9 |
| 20260904001402 | 58 | 84 | 2.0 | 5.0 | 0.00 | 0.24 | 0.18 | 85 | 1010.0 |
| 20260904000403 | 58 | 86 | 0.0 | 3.0 | 0.00 | 0.25 | 0.18 | 85 | 1010.0 |
| 20260903235902 | 59 | 93 | 1.0 | 3.0 | 0.00 | 0.25 | 0.18 | 84 | 1009.9 |
| 20260903234903 | 59 | 214 | 0.0 | 3.0 | 0.00 | 0.25 | 0.18 | 81 | 1010.0 |
| 20260903234403 | 60 | 192 | 1.0 | 7.0 | 0.00 | 0.25 | 0.18 | 79 | 1010.0 |
| 20260903233903 | 61 | 214 | 1.0 | 7.0 | 0.00 | 0.26 | 0.18 | 77 | 1009.9 |
| 20260903233403 | 62 | 226 | 1.0 | 3.0 | 0.00 | 0.26 | 0.18 | 76 | 1009.9 |
| 20260903232903 | 62 | 217 | 1.0 | 3.0 | 0.00 | 0.26 | 0.18 | 72 | 1009.8 |
| 20260903232403 | 62 | 180 | 0.0 | 2.0 | 0.00 | 0.26 | 0.18 | 68 | 1009.8 |
| 20260903231902 | 63 | 221 | 0.0 | 2.0 | 0.00 | 0.27 | 0.18 | 67 | 1009.8 |
| 20260903231402 | 63 | 196 | 0.0 | 2.0 | 0.00 | 0.27 | 0.18 | 66 | 1009.7 |
| 20260903230903 | 63 | 201 | 0.0 | 5.0 | 0.00 | 0.27 | 0.18 | 67 | 1009.8 |
| 20260903230402 | 63 | 216 | 1.0 | 5.0 | 0.00 | 0.27 | 0.18 | 66 | 1009.8 |
| 20260903225903 | 63 | 250 | 2.0 | 5.0 | 0.00 | 0.27 | 0.18 | 66 | 1009.8 |
| 20260903225402 | 63 | 209 | 0.0 | 2.0 | 0.00 | 0.28 | 0.18 | 68 | 1009.8 |
| 20260903224903 | 63 | 195 | 0.0 | 2.0 | 0.00 | 0.28 | 0.18 | 70 | 1009.8 |
| 20260903224403 | 63 | 236 | 1.0 | 2.0 | 0.00 | 0.28 | 0.18 | 70 | 1009.9 |
| 20260903223902 | 62 | 175 | 0.0 | 3.0 | 0.00 | 0.28 | 0.18 | 72 | 1010.0 |
| 20260903223402 | 61 | 197 | 1.0 | 5.0 | 0.00 | 0.29 | 0.18 | 74 | 1010.0 |
| 20260903222903 | 61 | 152 | 2.0 | 5.0 | 0.00 | 0.29 | 0.18 | 72 | 1010.1 |
| 20260903222403 | 60 | 204 | 0.0 | 3.0 | 0.00 | 0.29 | 0.18 | 74 | 1010.1 |
| 20260903221902 | 60 | 271 | 0.0 | 3.0 | 0.00 | 0.29 | 0.18 | 75 | 1010.1 |
| 20260903221402 | 60 | 160 | 1.0 | 6.0 | 0.00 | 0.30 | 0.18 | 73 | 1010.1 |
| 20260903220903 | 61 | 232 | 2.0 | 6.0 | 0.00 | 0.30 | 0.18 | 73 | 1010.1 |
| 20260903220402 | 61 | 203 | 1.0 | 7.0 | 0.00 | 0.30 | 0.18 | 77 | 1010.2 |
| 20260903215903 | 61 | 174 | 2.0 | 7.0 | 0.00 | 0.31 | 0.18 | 75 | 1010.1 |
| 20260903215402 | 61 | 163 | 1.0 | 5.0 | 0.00 | 0.31 | 0.18 | 75 | 1010.1 |
| 20260903214903 | 61 | 238 | 1.0 | 5.0 | 0.00 | 0.31 | 0.18 | 76 | 1010.1 |
| 20260903214403 | 61 | 149 | 1.0 | 5.0 | 0.00 | 0.32 | 0.18 | 78 | 1010.1 |
| 20260903213902 | 61 | 190 | 0.0 | 6.0 | 0.00 | 0.32 | 0.18 | 78 | 1010.2 |
| 20260903212903 | 61 | 203 | 1.0 | 5.0 | 0.00 | 0.33 | 0.18 | 81 | 1010.2 |
| 20260903212403 | 60 | 30 | 1.0 | 5.0 | 0.00 | 0.33 | 0.18 | 80 | 1010.1 |
| 20260903211902 | 60 | 194 | 1.0 | 5.0 | 0.00 | 0.33 | 0.18 | 81 | 1010.1 |
| 20260903211403 | 60 | 140 | 0.0 | 2.0 | 0.00 | 0.34 | 0.18 | 83 | 1010.1 |
| 20260903210902 | 60 | 143 | 0.0 | 3.0 | 0.00 | 0.34 | 0.18 | 83 | 1010.1 |
| 20260903205902 | 60 | 217 | 2.0 | 5.0 | 0.02 | 0.35 | 0.18 | 83 | 1010.1 |
| 20260903205403 | 60 | 130 | 0.0 | 3.0 | 0.14 | 0.36 | 0.18 | 84 | 1010.1 |
| 20260903204903 | 60 | 96 | 0.0 | 2.0 | 0.14 | 0.36 | 0.18 | 82 | 1010.1 |
| 20260903204402 | 60 | 153 | 0.0 | 5.0 | 0.14 | 0.37 | 0.18 | 83 | 1010.2 |
| 20260903203403 | 60 | 91 | 1.0 | 6.0 | 0.14 | 0.38 | 0.18 | 81 | 1010.1 |
| 20260903202903 | 60 | 123 | 1.0 | 6.0 | 0.14 | 0.39 | 0.18 | 82 | 1010.1 |
| 20260903202403 | 60 | 66 | 0.0 | 5.0 | 0.14 | 0.40 | 0.18 | 82 | 1010.1 |
| 20260903201402 | 61 | 150 | 2.0 | 6.0 | 0.14 | 0.41 | 0.18 | 86 | 1010.1 |
| 20260903200903 | 61 | 157 | 0.0 | 5.0 | 0.14 | 0.41 | 0.18 | 87 | 1010.1 |
| 20260903200403 | 60 | 128 | 0.0 | 3.0 | 0.14 | 0.42 | 0.18 | 87 | 1010.2 |
| 20260903195403 | 60 | 206 | 1.0 | 6.0 | 0.00 | 0.29 | 0.04 | 85 | 1010.2 |
| 20260903194903 | 59 | 96 | 3.0 | 7.0 | 0.00 | 0.30 | 0.04 | 85 | 1010.2 |
| 20260903194403 | 59 | 124 | 0.0 | 7.0 | 0.00 | 0.31 | 0.04 | 87 | 1010.3 |
| 20260903193903 | 58 | 92 | 2.0 | 3.0 | 0.00 | 0.31 | 0.04 | 88 | 1010.3 |
| 20260903192903 | 58 | 178 | 2.0 | 7.0 | 0.00 | 0.32 | 0.04 | 87 | 1010.4 |
| 20260903192403 | 58 | 72 | 0.0 | 2.0 | 0.00 | 0.33 | 0.04 | 89 | 1010.4 |
| 20260903191902 | 57 | 118 | 0.0 | 2.0 | 0.00 | 0.34 | 0.04 | 87 | 1010.3 |
| 20260903191403 | 57 | 109 | 1.0 | 2.0 | 0.00 | 0.34 | 0.04 | 87 | 1010.4 |
| 20260903190903 | 57 | 62 | 0.0 | 6.0 | 0.00 | 0.35 | 0.04 | 87 | 1010.5 |
| 20260903190403 | 57 | 34 | 1.0 | 6.0 | 0.00 | 0.35 | 0.04 | 86 | 1010.5 |
| 20260903185902 | 59 | 253 | 3.0 | 5.0 | 0.00 | 0.36 | 0.04 | 86 | 1010.3 |
| 20260903185403 | 60 | 50 | 1.0 | 2.0 | 0.01 | 0.37 | 0.04 | 84 | 1010.1 |
| 20260903184903 | 61 | 254 | 0.0 | 3.0 | 0.01 | 0.37 | 0.04 | 80 | 1010.1 |
| 20260903183903 | 62 | 104 | 2.0 | 5.0 | 0.01 | 0.39 | 0.04 | 78 | 1010.0 |
| 20260903182903 | 62 | 110 | 2.0 | 5.0 | 0.01 | 0.40 | 0.04 | 77 | 1010.1 |
| 20260903182403 | 62 | 116 | 1.0 | 7.0 | 0.01 | 0.41 | 0.04 | 81 | 1010.0 |
| 20260903181902 | 61 | 73 | 2.0 | 7.0 | 0.01 | 0.42 | 0.04 | 79 | 1010.0 |
| 20260903181403 | 61 | 79 | 2.0 | 7.0 | 0.01 | 0.43 | 0.04 | 80 | 1010.1 |
| 20260903180903 | 61 | 126 | 1.0 | 10.0 | 0.01 | 0.44 | 0.04 | 80 | 1010.2 |
| 20260903180403 | 61 | 73 | 4.0 | 10.0 | 0.01 | 0.45 | 0.04 | 78 | 1010.2 |
| 20260903175903 | 61 | 89 | 3.0 | 8.0 | 0.01 | 0.46 | 0.04 | 80 | 1010.2 |
| 20260903175402 | 61 | 85 | 2.0 | 8.0 | 0.00 | 0.45 | 0.03 | 80 | 1010.2 |
| 20260903174903 | 60 | 62 | 2.0 | 8.0 | 0.00 | 0.46 | 0.03 | 84 | 1010.2 |
| 20260903173903 | 59 | 73 | 3.0 | 8.0 | 0.00 | 0.46 | 0.03 | 86 | 1010.2 |
| 20260903173402 | 58 | 24 | 4.0 | 8.0 | 0.00 | 0.47 | 0.03 | 85 | 1010.3 |
| 20260903172903 | 57 | 82 | 1.0 | 2.0 | 0.00 | 0.47 | 0.03 | 89 | 1010.2 |
| 20260903172402 | 57 | 154 | 0.0 | 2.0 | 0.00 | 0.47 | 0.03 | 90 | 1010.4 |
| 20260903165903 | 55 | 159 | 0.0 | 0.0 | 0.00 | 0.47 | 0.03 | 92 | 1010.4 |
| 20260903165403 | 55 | 164 | 0.0 | 1.0 | 0.00 | 0.47 | 0.03 | 92 | 1010.4 |
| 20260903164903 | 55 | 85 | 0.0 | 2.0 | 0.00 | 0.47 | 0.03 | 92 | 1010.4 |
| 20260903164403 | 55 | 77 | 1.0 | 2.0 | 0.00 | 0.47 | 0.03 | 91 | 1010.5 |
| 20260903163903 | 55 | 63 | 0.0 | 5.0 | 0.00 | 0.47 | 0.03 | 92 | 1010.6 |
| 20260903163403 | 55 | 85 | 0.0 | 5.0 | 0.00 | 0.47 | 0.03 | 91 | 1010.6 |
| 20260903162903 | 55 | 112 | 0.0 | 2.0 | 0.00 | 0.47 | 0.03 | 91 | 1010.5 |
| 20260903162402 | 55 | 31 | 0.0 | 3.0 | 0.00 | 0.47 | 0.03 | 91 | 1010.6 |
| 20260903161903 | 55 | 64 | 1.0 | 8.0 | 0.01 | 0.47 | 0.03 | 91 | 1010.6 |
| 20260903161403 | 55 | 90 | 1.0 | 8.0 | 0.01 | 0.47 | 0.03 | 91 | 1010.6 |
| 20260903160902 | 55 | 84 | 1.0 | 5.0 | 0.01 | 0.47 | 0.03 | 91 | 1010.6 |
| 20260903160403 | 55 | 74 | 1.0 | 5.0 | 0.01 | 0.47 | 0.03 | 91 | 1010.6 |
| 20260903155902 | 55 | 114 | 1.0 | 5.0 | 0.01 | 0.47 | 0.03 | 91 | 1010.5 |
| 20260903155403 | 54 | 70 | 1.0 | 5.0 | 0.01 | 0.47 | 0.03 | 91 | 1010.4 |
| 20260903154902 | 54 | 109 | 2.0 | 5.0 | 0.01 | 0.47 | 0.03 | 91 | 1010.4 |
| 20260903153903 | 54 | 73 | 1.0 | 2.0 | 0.01 | 0.47 | 0.03 | 91 | 1010.3 |
| 20260903152903 | 54 | 98 | 1.0 | 3.0 | 0.01 | 0.47 | 0.03 | 91 | 1010.4 |
| 20260903152403 | 54 | 108 | 1.0 | 3.0 | 0.01 | 0.47 | 0.03 | 91 | 1010.5 |
| 20260903151903 | 54 | 131 | 0.0 | 3.0 | 0.00 | 0.46 | 0.02 | 91 | 1010.4 |
| 20260903151403 | 54 | 84 | 1.0 | 5.0 | 0.00 | 0.46 | 0.02 | 91 | 1010.4 |
| 20260903150903 | 54 | 107 | 1.0 | 5.0 | 0.00 | 0.46 | 0.02 | 91 | 1010.3 |
| 20260903150402 | 54 | 82 | 0.0 | 5.0 | 0.00 | 0.46 | 0.02 | 91 | 1010.4 |
| 20260903145903 | 54 | 75 | 2.0 | 5.0 | 0.00 | 0.46 | 0.02 | 91 | 1010.3 |
| 20260903145403 | 54 | 55 | 0.0 | 6.0 | 0.00 | 0.46 | 0.02 | 91 | 1010.3 |
| 20260903144403 | 54 | 88 | 3.0 | 8.0 | 0.00 | 0.46 | 0.02 | 90 | 1010.2 |
| 20260903143903 | 54 | 73 | 1.0 | 3.0 | 0.00 | 0.46 | 0.02 | 91 | 1010.2 |
| 20260903143403 | 54 | 101 | 1.0 | 3.0 | 0.00 | 0.46 | 0.02 | 91 | 1010.1 |
| 20260903142902 | 54 | 73 | 0.0 | 3.0 | 0.00 | 0.46 | 0.02 | 91 | 1010.0 |
| 20260903142402 | 54 | 78 | 0.0 | 3.0 | 0.00 | 0.46 | 0.02 | 91 | 1009.9 |
| 20260903141904 | 54 | 66 | 0.0 | 6.0 | 0.00 | 0.46 | 0.02 | 91 | 1009.9 |
| 20260903140903 | 54 | 91 | 0.0 | 5.0 | 0.00 | 0.46 | 0.02 | 91 | 1009.9 |
| 20260903140402 | 54 | 79 | 1.0 | 2.0 | 0.00 | 0.46 | 0.02 | 90 | 1009.9 |
| 20260903135903 | 54 | 63 | 1.0 | 2.0 | 0.00 | 0.46 | 0.02 | 91 | 1009.9 |
| 20260903135403 | 54 | 69 | 1.0 | 2.0 | 0.00 | 0.46 | 0.02 | 91 | 1009.8 |
| 20260903134902 | 54 | 85 | 0.0 | 2.0 | 0.00 | 0.46 | 0.02 | 90 | 1009.8 |
| 20260903134403 | 54 | 110 | 0.0 | 2.0 | 0.00 | 0.46 | 0.02 | 90 | 1009.8 |
| 20260903133403 | 54 | 78 | 0.0 | 2.0 | 0.00 | 0.46 | 0.02 | 90 | 1009.7 |
| 20260903132903 | 54 | 104 | 0.0 | 2.0 | 0.00 | 0.46 | 0.02 | 89 | 1009.8 |
| 20260903131903 | 55 | 91 | 1.0 | 3.0 | 0.00 | 0.46 | 0.02 | 87 | 1009.8 |
| 20260903131402 | 55 | 120 | 0.0 | 2.0 | 0.00 | 0.46 | 0.02 | 87 | 1009.8 |
| 20260903130403 | 55 | 108 | 0.0 | 5.0 | 0.00 | 0.46 | 0.02 | 86 | 1009.5 |
| 20260903125403 | 55 | 147 | 0.0 | 5.0 | 0.01 | 0.46 | 0.02 | 86 | 1009.6 |
| 20260903123903 | 55 | 52 | 1.0 | 3.0 | 0.01 | 0.46 | 0.02 | 87 | 1009.6 |
| 20260903123403 | 55 | 90 | 1.0 | 5.0 | 0.01 | 0.46 | 0.02 | 87 | 1009.6 |
| 20260903122903 | 55 | 92 | 2.0 | 6.0 | 0.01 | 0.46 | 0.02 | 87 | 1009.6 |
| 20260903122403 | 55 | 97 | 1.0 | 6.0 | 0.01 | 0.46 | 0.02 | 88 | 1009.7 |
| 20260903121903 | 54 | 50 | 1.0 | 3.0 | 0.01 | 0.46 | 0.02 | 89 | 1009.8 |
| 20260903121403 | 54 | 135 | 0.0 | 3.0 | 0.01 | 0.46 | 0.02 | 88 | 1009.8 |
| 20260903120903 | 54 | 72 | 1.0 | 3.0 | 0.01 | 0.46 | 0.02 | 88 | 1009.8 |
| 20260903115403 | 55 | 166 | 1.0 | 3.0 | 0.00 | 0.45 | 0.01 | 88 | 1009.8 |
| 20260903114903 | 55 | 74 | 1.0 | 5.0 | 0.00 | 0.45 | 0.01 | 88 | 1009.9 |
| 20260903114403 | 55 | 100 | 0.0 | 5.0 | 0.00 | 0.45 | 0.01 | 88 | 1009.9 |
| 20260903113902 | 55 | 84 | 1.0 | 5.0 | 0.00 | 0.45 | 0.01 | 88 | 1009.9 |
| 20260903113403 | 55 | 99 | 1.0 | 5.0 | 0.00 | 0.45 | 0.01 | 88 | 1009.8 |
| 20260903112902 | 55 | 90 | 1.0 | 6.0 | 0.00 | 0.45 | 0.01 | 89 | 1009.8 |
| 20260903111903 | 55 | 92 | 1.0 | 6.0 | 0.00 | 0.45 | 0.01 | 89 | 1009.9 |
| 20260903111403 | 55 | 124 | 0.0 | 3.0 | 0.00 | 0.45 | 0.01 | 89 | 1009.8 |
| 20260903110903 | 55 | 131 | 1.0 | 5.0 | 0.00 | 0.45 | 0.01 | 90 | 1009.8 |
| 20260903110403 | 55 | 80 | 2.0 | 5.0 | 0.00 | 0.45 | 0.01 | 89 | 1009.8 |
| 20260903105403 | 55 | 71 | 1.0 | 3.0 | 0.00 | 0.45 | 0.01 | 90 | 1009.9 |
| 20260903104402 | 55 | 75 | 1.0 | 3.0 | 0.00 | 0.45 | 0.01 | 90 | 1009.9 |
| 20260903103902 | 55 | 88 | 2.0 | 3.0 | 0.00 | 0.45 | 0.01 | 90 | 1010.0 |
| 20260903103403 | 55 | 79 | 0.0 | 5.0 | 0.00 | 0.45 | 0.01 | 90 | 1009.9 |
| 20260903102903 | 55 | 94 | 2.0 | 5.0 | 0.00 | 0.45 | 0.01 | 90 | 1009.8 |
| 20260903102404 | 55 | 106 | 1.0 | 5.0 | 0.00 | 0.45 | 0.01 | 91 | 1009.8 |
| 20260903101902 | 55 | 120 | 1.0 | 5.0 | 0.00 | 0.45 | 0.01 | 91 | 1009.8 |
| 20260903100403 | 54 | 93 | 1.0 | 3.0 | 0.00 | 0.45 | 0.01 | 91 | 1009.7 |
| 20260903095903 | 55 | 102 | 1.0 | 5.0 | 0.00 | 0.45 | 0.01 | 91 | 1009.6 |
| 20260903095403 | 55 | 90 | 1.0 | 5.0 | 0.00 | 0.45 | 0.01 | 91 | 1009.7 |
| 20260903094903 | 55 | 112 | 1.0 | 2.0 | 0.00 | 0.45 | 0.01 | 90 | 1009.7 |
| 20260903094402 | 55 | 72 | 0.0 | 2.0 | 0.01 | 0.45 | 0.01 | 90 | 1009.7 |
| 20260903093903 | 55 | 108 | 0.0 | 2.0 | 0.01 | 0.45 | 0.01 | 90 | 1009.6 |
| 20260903093403 | 55 | 100 | 1.0 | 6.0 | 0.01 | 0.45 | 0.01 | 90 | 1009.7 |
| 20260903092903 | 55 | 76 | 1.0 | 6.0 | 0.01 | 0.45 | 0.01 | 90 | 1009.7 |
| 20260903091903 | 55 | 70 | 0.0 | 3.0 | 0.01 | 0.45 | 0.01 | 90 | 1009.9 |
| 20260903091403 | 55 | 101 | 1.0 | 3.0 | 0.01 | 0.45 | 0.01 | 90 | 1009.9 |
| 20260903090903 | 55 | 100 | 1.0 | 3.0 | 0.01 | 0.45 | 0.01 | 90 | 1009.8 |
| 20260903090403 | 55 | 115 | 2.0 | 3.0 | 0.01 | 0.45 | 0.01 | 90 | 1009.8 |
| 20260903085403 | 55 | 82 | 0.0 | 5.0 | 0.01 | 0.45 | 0.01 | 90 | 1009.7 |
| 20260903084903 | 55 | 83 | 0.0 | 5.0 | 0.01 | 0.45 | 0.01 | 90 | 1009.8 |
| 20260903084402 | 55 | 69 | 1.0 | 3.0 | 0.00 | 0.44 | 0.00 | 90 | 1009.8 |
| 20260903083903 | 55 | 16 | 0.0 | 2.0 | 0.00 | 0.44 | 0.00 | 90 | 1009.8 |
| 20260903083403 | 55 | 55 | 1.0 | 5.0 | 0.00 | 0.44 | 0.00 | 90 | 1009.9 |
| 20260903082903 | 55 | 52 | 0.0 | 5.0 | 0.00 | 0.44 | 0.00 | 90 | 1009.8 |
| 20260903082402 | 55 | 66 | 0.0 | 6.0 | 0.00 | 0.44 | 0.00 | 90 | 1009.9 |
| 20260903081403 | 55 | 65 | 1.0 | 3.0 | 0.00 | 0.44 | 0.00 | 90 | 1009.9 |
| 20260903080903 | 55 | 99 | 1.0 | 3.0 | 0.00 | 0.44 | 0.00 | 90 | 1009.9 |
| 20260903075903 | 56 | 146 | 0.0 | 6.0 | 0.00 | 0.44 | 0.00 | 90 | 1009.9 |
| 20260903075403 | 56 | 55 | 2.0 | 6.0 | 0.00 | 0.44 | 0.00 | 90 | 1010.0 |
| 20260903074903 | 56 | 112 | 0.0 | 6.0 | 0.00 | 0.44 | 0.00 | 90 | 1009.9 |
| 20260903074403 | 56 | 129 | 0.0 | 6.0 | 0.00 | 0.44 | 0.00 | 90 | 1010.0 |
| 20260903073903 | 56 | 88 | 2.0 | 6.0 | 0.00 | 0.44 | 0.00 | 90 | 1009.9 |
| 20260903073403 | 56 | 112 | 0.0 | 5.0 | 0.00 | 0.44 | 0.00 | 90 | 1009.8 |
| 20260903072903 | 56 | 78 | 0.0 | 5.0 | 0.00 | 0.44 | 0.00 | 90 | 1009.8 |
| 20260903072402 | 56 | 123 | 1.0 | 5.0 | 0.00 | 0.44 | 0.00 | 90 | 1009.9 |
| 20260903071903 | 56 | 113 | 1.0 | 3.0 | 0.00 | 0.44 | 0.00 | 90 | 1009.8 |
| 20260903071403 | 56 | 40 | 0.0 | 3.0 | 0.01 | 0.44 | 0.00 | 90 | 1009.8 |
| 20260903070403 | 56 | 103 | 0.0 | 5.0 | 0.01 | 0.44 | 0.00 | 90 | 1009.7 |
| 20260903065903 | 56 | 232 | 1.0 | 5.0 | 0.01 | 0.44 | 0.44 | 90 | 1009.7 |
| 20260903065403 | 56 | 200 | 2.0 | 3.0 | 0.01 | 0.44 | 0.44 | 91 | 1009.7 |
| 20260903064903 | 56 | 326 | 0.0 | 6.0 | 0.01 | 0.44 | 0.44 | 90 | 1009.7 |
| 20260903064403 | 56 | 147 | 2.0 | 7.0 | 0.01 | 0.44 | 0.44 | 90 | 1009.6 |
| 20260903063903 | 56 | 94 | 2.0 | 7.0 | 0.01 | 0.44 | 0.44 | 90 | 1009.6 |
| 20260903063403 | 56 | 67 | 2.0 | 5.0 | 0.01 | 0.44 | 0.44 | 91 | 1009.6 |
| 20260903062903 | 56 | 72 | 1.0 | 2.0 | 0.01 | 0.44 | 0.44 | 91 | 1009.6 |
| 20260903062403 | 56 | 67 | 0.0 | 1.0 | 0.01 | 0.44 | 0.44 | 91 | 1009.7 |
| 20260903061903 | 56 | 30 | 0.0 | 2.0 | 0.01 | 0.44 | 0.44 | 91 | 1009.7 |
| 20260903061403 | 56 | 71 | 0.0 | 2.0 | 0.00 | 0.43 | 0.43 | 91 | 1009.7 |
| 20260903060403 | 56 | 47 | 0.0 | 3.0 | 0.00 | 0.43 | 0.43 | 91 | 1009.5 |
| 20260903055903 | 56 | 68 | 1.0 | 3.0 | 0.00 | 0.43 | 0.43 | 91 | 1009.5 |
| 20260903055403 | 56 | 96 | 0.0 | 2.0 | 0.00 | 0.43 | 0.43 | 91 | 1009.6 |
| 20260903054903 | 56 | 83 | 0.0 | 2.0 | 0.00 | 0.43 | 0.43 | 91 | 1009.7 |
| 20260903054403 | 56 | 112 | 0.0 | 3.0 | 0.00 | 0.43 | 0.43 | 91 | 1009.8 |
| 20260903053403 | 56 | 65 | 0.0 | 2.0 | 0.00 | 0.43 | 0.43 | 92 | 1009.7 |
| 20260903052903 | 56 | 65 | 1.0 | 2.0 | 0.00 | 0.43 | 0.43 | 91 | 1009.7 |
| 20260903052402 | 56 | 359 | 0.0 | 3.0 | 0.00 | 0.43 | 0.43 | 91 | 1009.7 |
| 20260903051903 | 56 | 78 | 1.0 | 3.0 | 0.00 | 0.43 | 0.43 | 92 | 1009.7 |
| 20260903050403 | 56 | 65 | 0.0 | 2.0 | 0.01 | 0.43 | 0.43 | 92 | 1009.5 |
| 20260903045903 | 56 | 39 | 0.0 | 1.0 | 0.01 | 0.43 | 0.43 | 92 | 1009.6 |
| 20260903045403 | 57 | 71 | 0.0 | 0.0 | 0.01 | 0.43 | 0.43 | 92 | 1009.5 |
| 20260903044903 | 57 | 73 | 0.0 | 2.0 | 0.01 | 0.43 | 0.43 | 92 | 1009.4 |
| 20260903043403 | 57 | 73 | 0.0 | 1.0 | 0.01 | 0.43 | 0.43 | 91 | 1009.1 |
| 20260903042903 | 57 | 53 | 0.0 | 5.0 | 0.01 | 0.43 | 0.43 | 91 | 1009.1 |
| 20260903042403 | 57 | 35 | 0.0 | 6.0 | 0.01 | 0.43 | 0.43 | 91 | 1009.0 |
| 20260903041903 | 57 | 107 | 2.0 | 7.0 | 0.01 | 0.43 | 0.43 | 91 | 1009.0 |
| 20260903041403 | 57 | 265 | 1.0 | 7.0 | 0.00 | 0.42 | 0.42 | 92 | 1008.9 |
| 20260903040902 | 57 | 163 | 1.0 | 9.0 | 0.00 | 0.42 | 0.42 | 92 | 1008.9 |
| 20260903035903 | 58 | 132 | 0.0 | 5.0 | 0.00 | 0.42 | 0.42 | 92 | 1008.9 |
| 20260903034403 | 58 | 124 | 1.0 | 5.0 | 0.01 | 0.42 | 0.42 | 92 | 1008.7 |
| 20260903033903 | 58 | 109 | 1.0 | 5.0 | 0.01 | 0.42 | 0.42 | 92 | 1008.7 |
| 20260903033402 | 58 | 95 | 1.0 | 5.0 | 0.01 | 0.42 | 0.42 | 92 | 1008.7 |
| 20260903032902 | 58 | 123 | 0.0 | 3.0 | 0.01 | 0.42 | 0.42 | 92 | 1008.6 |
| 20260903032402 | 58 | 151 | 1.0 | 3.0 | 0.01 | 0.42 | 0.42 | 92 | 1008.5 |
| 20260903031903 | 58 | 104 | 1.0 | 3.0 | 0.01 | 0.42 | 0.42 | 92 | 1008.5 |
| 20260903031403 | 58 | 98 | 0.0 | 3.0 | 0.01 | 0.42 | 0.42 | 92 | 1008.5 |
| 20260903030902 | 58 | 110 | 2.0 | 3.0 | 0.01 | 0.42 | 0.42 | 92 | 1008.3 |
| 20260903030403 | 58 | 120 | 2.0 | 5.0 | 0.01 | 0.42 | 0.42 | 92 | 1008.3 |